Satellite-Ground Cal/Val Region Overpasses Predictions

Prediction of Satellite NPP Overpassing Cal/Val Region: PacNW

Region Location: (Latitude: 10.00, Longitude: 139.50) to (Latitude: 22.70, Longitude: 165.60).

Table of predicted overpasses for the next 14.0 days since TLE Epoch: 10/30/2023
Interval Starting Time Starting Location Ending Time Ending Location
1 10/30/2023 15:49:55 ( 22.67, 147.59) 10/30/2023 15:53:30 ( 10.05, 144.59)
2 10/31/2023 02:59:00 ( 10.01, 155.12) 10/31/2023 03:02:36 ( 22.69, 152.11)
3 10/31/2023 15:30:54 ( 22.67, 152.34) 10/31/2023 15:34:29 ( 10.04, 149.34)
4 11/01/2023 02:39:59 ( 10.01, 159.88) 11/01/2023 02:43:35 ( 22.69, 156.86)
5 11/01/2023 15:11:52 ( 22.66, 157.09) 11/01/2023 15:15:27 ( 10.04, 154.09)
6 11/02/2023 02:20:57 ( 10.02, 164.63) 11/02/2023 02:24:33 ( 22.70, 161.62)
7 11/02/2023 14:52:51 ( 22.66, 161.85) 11/02/2023 14:56:26 ( 10.03, 158.85)
8 11/03/2023 03:43:26 ( 10.03, 144.01) 11/03/2023 03:47:01 ( 22.65, 141.01)
9 11/03/2023 14:35:00 ( 18.54, 165.59) 11/03/2023 14:37:25 ( 10.03, 163.60)
10 11/03/2023 16:15:19 ( 22.64, 141.22) 11/03/2023 16:17:20 ( 15.54, 139.50)
11 11/04/2023 03:24:24 ( 10.04, 148.76) 11/04/2023 03:27:59 ( 22.66, 145.76)
12 11/04/2023 15:56:17 ( 22.69, 145.99) 11/04/2023 15:59:53 ( 10.01, 142.98)
13 11/05/2023 03:05:23 ( 10.05, 153.51) 11/05/2023 03:08:58 ( 22.67, 150.51)
14 11/05/2023 15:37:16 ( 22.68, 150.74) 11/05/2023 15:40:52 ( 10.00, 147.73)
15 11/06/2023 02:46:20 ( 10.00, 158.28) 11/06/2023 02:49:56 ( 22.68, 155.27)
16 11/06/2023 15:18:14 ( 22.67, 155.50) 11/06/2023 15:21:49 ( 10.05, 152.50)
17 11/07/2023 02:27:19 ( 10.01, 163.03) 11/07/2023 02:30:55 ( 22.70, 160.02)
18 11/07/2023 14:59:13 ( 22.65, 160.25) 11/07/2023 15:02:48 ( 10.03, 157.25)
19 11/08/2023 02:10:56 ( 19.37, 165.59) 11/08/2023 02:11:52 ( 22.65, 164.78)
20 11/08/2023 03:49:47 ( 10.04, 142.41) 11/08/2023 03:53:15 ( 22.25, 139.51)
21 11/08/2023 14:40:10 ( 22.70, 165.01) 11/08/2023 14:43:46 ( 10.02, 162.00)
22 11/08/2023 16:21:40 ( 22.69, 139.64) 11/08/2023 16:21:49 ( 22.16, 139.51)
23 11/09/2023 03:30:46 ( 10.05, 147.16) 11/09/2023 03:34:21 ( 22.67, 144.16)
24 11/09/2023 16:02:39 ( 22.67, 144.39) 11/09/2023 16:06:14 ( 10.05, 141.39)
25 11/10/2023 03:11:43 ( 10.01, 151.92) 11/10/2023 03:15:19 ( 22.69, 148.91)
26 11/10/2023 15:43:37 ( 22.65, 149.14) 11/10/2023 15:47:12 ( 10.03, 146.14)
27 11/11/2023 02:52:42 ( 10.03, 156.68) 11/11/2023 02:56:17 ( 22.66, 153.68)
28 11/11/2023 15:24:35 ( 22.69, 153.91) 11/11/2023 15:28:11 ( 10.01, 150.89)
29 11/12/2023 02:33:41 ( 10.06, 161.43) 11/12/2023 02:37:16 ( 22.68, 158.43)
30 11/12/2023 15:05:33 ( 22.67, 158.66) 11/12/2023 15:09:08 ( 10.05, 155.66)
